ATLAS 5 CENTAUR DEB, 52044

Orbit data source: Space-Track

ATLAS 5 CENTAUR DEB, 52044 is space debris in HEO originally from a launch on Wed, 17 Oct 2018 UTC launched from the Air Force Eastern Test Range (AFETR). Debris objects in space refer to the collection of defunct objects orbiting the Earth. Examples of debris include non-operational satellites, rocket bodies, and fragments generated from explosions, collisions, or faulty payload assembly.

Loading next visibility...
Identifier
52044, 2018-079GN
Orbit
HEO
Country
Flag of USUS
Related business
Flag of USUnited Launch Alliance/Lockheed Martin (US)
Manufacturer
ULA Decatur
Mission
Spacecraft
Bus & Motor
Unknown
Mass
Unknown
Launch date (UTC)
2018-10-17 (7 years ago)
Launch vehicle
Unknown
Launch site
Air Force Eastern Test Range (AFETR)
Object type
Payload
Rocket body
Debris
Shape & HBR
Unknown shape, 1.1 m
Radar Cross Section
RCS unknown

Expand to show TLE details & history
Last TLE update: 2 days ago

TLE from 2 days ago
0 ATLAS 5 CENTAUR DEB
1 52044U 18079GN  26035.23618798 -.00000149  00000-0  00000-0 0  9995
2 52044  12.7597  51.8771 4307622 293.9095  27.1788  1.90880301 31331
Epoch: 2026-02-04T05:40Z
TLE epoch observation values (Epoch: 2026-02-04T05:40:06.641Z)
Latitude
0.00001°
Longitude
-167.47489°
Altitude
12,662.317 km
Speed
5.23 km/s
True Right ascension
03h 27m 50s
True Declination
0° 00' 00"
Sunlit
Object was in daylight at epoch
Visualization orbit readout
Latitude
Unknown
Longitude
Unknown
Altitude
Unknown
Speed
Unknown
Apparent Right ascension
Unknown
Apparent Declination
Unknown
Sunlit
N/A
Visualization observer readout
Local Sidereal Time
21:12:44
Azimuth
Unknown
Elevation
Unknown
Doppler factor
Unknown
Orbital elements
Apogee altitude
32,900.9 km
Perigee altitude
9,249.277 km
Semi-major axis
27,453.225 km
Eccentricity
0.43076
Inclination
12.7597°
RAAN
51.8771°
Arg. of periapsis
293.9095°
True anomaly
65.89331°
Mean anomaly
27.1788°
Eccentric anomaly
44.46801°
Mean motion
0.47715 °/min
Orbital period
754.48 mins
BSTAR
0
Loading maneuver chart data...
Computing Atmospheric mass density...

Documentation

Showing up to 5 results
|